Location: Recife
(8.0585°S, 34.8848°W)
Time: 11:14:23
(UTC-03:00)

Courier 1B Rocket - Pass Details

Date: 19 April 2026
Orbit: 920 x 1201 km, 28.2° (Epoch: 13 May)

Event Time Altitude Azimuth Distance (km) Brightness Sun altitude
Rises 10:10:56 0° 227° (SW) 3,857 7.9 64.3°
Reaches altitude 10° 10:14:08 10° 215° (SW) 2,949 7.4 64.9°
Maximum altitude 10:20:05 26° 160° (SSE) 2,066 6.9 65.8°
Drops below altitude 10° 10:26:16 10° 106° (ESE) 3,089 7.9 66.7°
Sets 10:29:42 0° 94° (E) 4,075 8.4 67.1°
